| time (UTC) | temp F | wind direction | speed knots | gust knots | rain 1hr in | rain 24hr in | rain mn in | humidity % | barometer mb |
| 20260507223032 | 45 | 291 | 0.0 | 0.0 | 0.00 | 0.08 | 0.01 | 54 | 1005.6 |
| 20260507221501 | 45 | 291 | 2.6 | 10.4 | 0.00 | 0.08 | 0.01 | 52 | 1005.5 |
| 20260507220002 | 46 | 322 | 0.9 | 17.4 | 0.00 | 0.11 | 0.01 | 52 | 1005.5 |
| 20260507214559 | 45 | 298 | 1.7 | 15.6 | 0.00 | 0.11 | 0.01 | 51 | 1005.5 |
| 20260507213101 | 45 | 298 | 0.0 | 13.0 | 0.00 | 0.11 | 0.01 | 51 | 1005.4 |
| 20260507211558 | 46 | 264 | 0.0 | 11.3 | 0.00 | 0.11 | 0.01 | 51 | 1005.3 |
| 20260507210059 | 46 | 304 | 2.6 | 14.8 | 0.00 | 0.16 | 0.01 | 51 | 1005.3 |
| 20260507204554 | 46 | 297 | 0.9 | 12.2 | 0.00 | 0.16 | 0.01 | 52 | 1005.2 |
| 20260507203054 | 46 | 286 | 3.5 | 13.0 | 0.00 | 0.16 | 0.01 | 53 | 1005.0 |
| 20260507201552 | 47 | 211 | 0.0 | 13.9 | 0.00 | 0.16 | 0.01 | 54 | 1005.0 |
| 20260507200051 | 48 | 295 | 0.0 | 10.4 | 0.00 | 0.19 | 0.01 | 53 | 1005.0 |
| 20260507194548 | 48 | 281 | 2.6 | 12.2 | 0.00 | 0.19 | 0.01 | 50 | 1005.1 |
| 20260507193048 | 48 | 309 | 1.7 | 18.2 | 0.00 | 0.19 | 0.01 | 52 | 1005.0 |
| 20260507191548 | 49 | 293 | 0.0 | 15.6 | 0.00 | 0.19 | 0.01 | 52 | 1005.0 |
| 20260507190147 | 48 | 290 | 0.9 | 7.8 | 0.00 | 0.23 | 0.01 | 54 | 1005.0 |
| 20260507184517 | 49 | 291 | 0.0 | 8.7 | 0.00 | 0.23 | 0.01 | 58 | 1004.9 |
| 20260507183015 | 49 | 302 | 3.5 | 9.6 | 0.00 | 0.23 | 0.01 | 54 | 1004.9 |
| 20260507181546 | 50 | 292 | 0.0 | 13.0 | 0.00 | 0.23 | 0.01 | 55 | 1005.0 |
| 20260507180050 | 50 | 303 | 0.0 | 13.0 | 0.00 | 0.32 | 0.01 | 54 | 1005.0 |
| 20260507174519 | 51 | 281 | 0.0 | 0.9 | 0.00 | 0.32 | 0.01 | 61 | 1005.0 |
| 20260507173013 | 49 | 223 | 0.0 | 0.9 | 0.00 | 0.32 | 0.01 | 57 | 1005.0 |
| 20260507171503 | 47 | 231 | 0.0 | 7.8 | 0.00 | 0.32 | 0.01 | 64 | 1005.2 |
| 20260507170004 | 47 | 218 | 0.0 | 11.3 | 0.00 | 0.43 | 0.01 | 63 | 1005.4 |
| 20260507164600 | 48 | 294 | 0.0 | 4.3 | 0.00 | 0.43 | 0.01 | 62 | 1005.4 |
| 20260507163058 | 46 | 236 | 0.0 | 6.1 | 0.00 | 0.43 | 0.01 | 68 | 1005.6 |
| 20260507161557 | 46 | 275 | 0.0 | 10.4 | 0.00 | 0.43 | 0.01 | 70 | 1005.8 |
| 20260507160053 | 45 | 261 | 0.0 | 9.6 | 0.00 | 0.50 | 0.01 | 70 | 1005.9 |
| 20260507154554 | 45 | 286 | 0.0 | 6.1 | 0.00 | 0.50 | 0.01 | 73 | 1006.0 |
| 20260507153102 | 44 | 240 | 0.0 | 10.4 | 0.00 | 0.50 | 0.01 | 73 | 1006.0 |
| 20260507151547 | 44 | 294 | 0.0 | 10.4 | 0.00 | 0.50 | 0.01 | 73 | 1005.9 |
| 20260507150043 | 45 | 309 | 1.7 | 12.2 | 0.00 | 0.54 | 0.01 | 72 | 1005.8 |
| 20260507144543 | 46 | 215 | 0.0 | 3.5 | 0.00 | 0.54 | 0.01 | 77 | 1005.7 |
| 20260507143036 | 44 | 245 | 0.0 | 2.6 | 0.00 | 0.54 | 0.01 | 81 | 1005.8 |
| 20260507141503 | 45 | 225 | 0.0 | 4.3 | 0.00 | 0.54 | 0.01 | 82 | 1005.9 |
| 20260507140103 | 44 | 223 | 0.0 | 0.0 | 0.00 | 0.61 | 0.01 | 87 | 1005.7 |
| 20260507134552 | 43 | 253 | 0.0 | 0.0 | 0.00 | 0.61 | 0.01 | 91 | 1005.9 |
| 20260507133049 | 42 | 301 | 0.0 | 0.0 | 0.00 | 0.61 | 0.01 | 94 | 1006.0 |
| 20260507131548 | 41 | 223 | 0.0 | 0.0 | 0.00 | 0.61 | 0.01 | 96 | 1006.1 |
| 20260507130058 | 40 | 221 | 0.0 | 0.0 | 0.00 | 0.70 | 0.01 | 96 | 1006.2 |
| 20260507124537 | 40 | 9 | 0.0 | 0.0 | 0.00 | 0.70 | 0.01 | 96 | 1006.1 |
| 20260507123034 | 40 | 9 | 0.0 | 0.0 | 0.00 | 0.70 | 0.01 | 96 | 1006.2 |
| 20260507121529 | 40 | 9 | 0.0 | 0.0 | 0.00 | 0.70 | 0.01 | 97 | 1006.2 |
| 20260507120028 | 40 | 9 | 0.0 | 0.0 | 0.00 | 0.72 | 0.01 | 97 | 1006.2 |
| 20260507114526 | 40 | 9 | 0.0 | 0.0 | 0.00 | 0.72 | 0.01 | 97 | 1006.1 |
| 20260507113026 | 39 | 9 | 0.0 | 0.0 | 0.00 | 0.72 | 0.01 | 97 | 1006.2 |
| 20260507111523 | 39 | 9 | 0.0 | 0.0 | 0.00 | 0.72 | 0.01 | 98 | 1006.1 |
| 20260507110023 | 39 | 9 | 0.0 | 0.0 | 0.00 | 0.73 | 0.01 | 98 | 1006.1 |
| 20260507104519 | 38 | 9 | 0.0 | 0.0 | 0.00 | 0.73 | 0.01 | 98 | 1006.2 |
| 20260507103016 | 38 | 9 | 0.0 | 0.0 | 0.00 | 0.73 | 0.01 | 98 | 1006.1 |
| 20260507101518 | 38 | 9 | 0.0 | 0.0 | 0.01 | 0.73 | 0.01 | 98 | 1006.1 |
| 20260507100016 | 37 | 9 | 0.0 | 0.0 | 0.01 | 0.74 | 0.01 | 98 | 1005.7 |
| 20260507094515 | 37 | 9 | 0.0 | 0.0 | 0.01 | 0.74 | 0.01 | 98 | 1005.8 |
| 20260507093014 | 37 | 9 | 0.0 | 0.0 | 0.01 | 0.74 | 0.01 | 97 | 1005.6 |
| 20260507091506 | 37 | 9 | 0.0 | 0.0 | 0.00 | 0.73 | 0.00 | 98 | 1005.4 |
| 20260507090004 | 38 | 9 | 0.0 | 0.0 | 0.00 | 0.76 | 0.00 | 97 | 1005.7 |
| 20260507084514 | 38 | 9 | 0.0 | 0.0 | 0.00 | 0.76 | 0.00 | 98 | 1006.1 |
| 20260507083100 | 38 | 9 | 0.0 | 0.0 | 0.00 | 0.76 | 0.00 | 98 | 1006.0 |
| 20260507081600 | 38 | 9 | 0.0 | 0.0 | 0.00 | 0.76 | 0.00 | 98 | 1005.9 |
| 20260507080058 | 38 | 9 | 0.0 | 0.0 | 0.00 | 0.76 | 0.00 | 98 | 1005.8 |
| 20260507074605 | 38 | 9 | 0.0 | 0.0 | 0.00 | 0.76 | 0.00 | 98 | 1006.0 |
| 20260507073055 | 38 | 9 | 0.0 | 0.0 | 0.00 | 0.76 | 0.00 | 98 | 1005.8 |
| 20260507071604 | 38 | 9 | 0.0 | 0.0 | 0.00 | 0.76 | 0.00 | 98 | 1005.6 |
| 20260507070105 | 38 | 9 | 0.0 | 0.0 | 0.00 | 0.79 | 0.00 | 97 | 1005.7 |
| 20260507064556 | 38 | 9 | 0.0 | 0.0 | 0.00 | 0.79 | 0.00 | 97 | 1005.7 |
| 20260507063049 | 38 | 9 | 0.0 | 0.0 | 0.00 | 0.79 | 0.00 | 98 | 1005.9 |
| 20260507061549 | 38 | 9 | 0.0 | 0.0 | 0.00 | 0.79 | 0.00 | 97 | 1005.7 |
| 20260507060047 | 38 | 9 | 0.0 | 0.0 | 0.00 | 0.86 | 0.00 | 97 | 1005.7 |
| 20260507054605 | 39 | 9 | 0.0 | 0.0 | 0.00 | 0.86 | 0.00 | 97 | 1005.8 |
| 20260507053038 | 39 | 9 | 0.0 | 0.0 | 0.00 | 0.86 | 0.00 | 97 | 1006.3 |
| 20260507051546 | 39 | 9 | 0.0 | 0.0 | 0.00 | 0.86 | 0.00 | 97 | 1006.3 |
| 20260507050046 | 39 | 9 | 0.0 | 0.0 | 0.00 | 0.90 | 0.86 | 97 | 1006.4 |
| 20260507044636 | 39 | 9 | 0.0 | 0.0 | 0.00 | 0.90 | 0.86 | 98 | 1006.4 |
| 20260507043004 | 40 | 9 | 0.0 | 0.0 | 0.00 | 0.90 | 0.86 | 97 | 1006.6 |
| 20260507041510 | 40 | 9 | 0.0 | 0.0 | 0.00 | 0.90 | 0.86 | 97 | 1006.7 |
| 20260507040059 | 40 | 9 | 0.0 | 0.0 | 0.00 | 0.95 | 0.86 | 97 | 1006.5 |
| 20260507034608 | 41 | 9 | 0.0 | 0.0 | 0.00 | 0.95 | 0.86 | 98 | 1006.6 |
| 20260507033058 | 41 | 9 | 0.0 | 0.0 | 0.00 | 0.95 | 0.86 | 98 | 1006.9 |
| 20260507031600 | 41 | 9 | 0.0 | 0.0 | 0.00 | 0.95 | 0.86 | 98 | 1006.8 |
| 20260507030058 | 41 | 9 | 0.0 | 0.0 | 0.00 | 0.97 | 0.86 | 98 | 1006.4 |
| 20260507024556 | 41 | 9 | 0.0 | 0.0 | 0.01 | 0.97 | 0.86 | 98 | 1006.5 |
| 20260507023053 | 41 | 9 | 0.0 | 0.0 | 0.02 | 0.97 | 0.86 | 97 | 1006.5 |
| 20260507021613 | 41 | 9 | 0.0 | 0.0 | 0.03 | 0.97 | 0.86 | 98 | 1007.0 |
| 20260507020108 | 41 | 9 | 0.0 | 0.0 | 0.04 | 0.97 | 0.86 | 98 | 1006.9 |
| 20260507014617 | 41 | 9 | 0.0 | 0.0 | 0.03 | 0.96 | 0.85 | 98 | 1006.8 |
| 20260507013052 | 41 | 9 | 0.0 | 0.0 | 0.03 | 0.95 | 0.84 | 98 | 1006.8 |
| 20260507011557 | 41 | 9 | 0.0 | 0.0 | 0.02 | 0.94 | 0.83 | 98 | 1006.7 |
| 20260507010047 | 41 | 9 | 0.0 | 0.0 | 0.02 | 0.93 | 0.82 | 98 | 1006.3 |
| 20260507004545 | 41 | 9 | 0.0 | 0.0 | 0.02 | 0.93 | 0.82 | 97 | 1006.0 |
| 20260507003044 | 41 | 9 | 0.0 | 0.0 | 0.01 | 0.92 | 0.81 | 97 | 1005.8 |
| 20260507001558 | 41 | 9 | 0.0 | 0.0 | 0.01 | 0.91 | 0.80 | 97 | 1005.6 |
| 20260507000018 | 41 | 9 | 0.0 | 0.0 | 0.01 | 0.91 | 0.80 | 97 | 1005.3 |
| 20260506234513 | 41 | 9 | 0.0 | 0.0 | 0.01 | 0.91 | 0.80 | 97 | 1005.3 |
| 20260506233009 | 41 | 9 | 0.9 | 7.0 | 0.00 | 0.90 | 0.79 | 97 | 1005.2 |
| 20260506231508 | 41 | 9 | 0.0 | 0.0 | 0.00 | 0.90 | 0.79 | 97 | 1005.4 |
| 20260506230007 | 42 | 9 | 0.0 | 1.7 | 0.00 | 0.90 | 0.79 | 97 | 1005.2 |
| 20260506224507 | 42 | 5 | 0.0 | 0.0 | 0.01 | 0.90 | 0.79 | 97 | 1005.2 |